Вернуться в каталог

STARLINK-34193

АктивенСвязьVLEO
NORAD 64011·PAYLOAD·🇺🇸 United States

Запущен May 14, 2025 с Cape Canaveral Space Force Station

Loading…

Ближайшие Пролёты (ближайшие 24 часа)

TLE

СвежийSource: CelesTrak SupGP

Эпоха: Sep 15, 2026, 03:00 UTC

1 64011C 25101T   26258.12548611  .00024680  00000+0  89386-3 0  2586
2 64011  43.0014   8.3769 0001475 263.7428 110.7659 15.27568290    13

Отслеживайте STARLINK-34193 в реальном времени с AllMySat

Download on the App Store